Startseite
Über Mich
AHP4
Galerie
Sehschlangen
Tourenbuch
Bookmarks
Elektronik
Bewertung
Geschichten
[Tagesmessung] [Jahreswerte] [Information]

Messwerte vom 15.06.2022

Die letzten Messwerte von 23:58:49 Uhr:
KategorieMesswert
Temperatur [°C]17
Luftdruck [mBar]1001
Sonneneinstrahlung0
Wind [km/h]2 aus Nordwest
Niederschlag [l/m²]0
rel.Luftfeucht.61%
CO2 [ppm]977

Diagramme
Messwerte vom 15.06.2022
Tagesaggregation
KategorieMinimumMaximumSchnittSumme
Temperatur [°C]73419.3655
Luftdruck [mBar]100010061002.8908
Sonneneinstrahlung247136.7479
Wind [km/h]14
rF [%]20.496.657.36
Niederschlag [l/m²]0
CO2 [ppm]3961010691.3
Einordnung alsVegetationstag
Sommertag
Heißer Tag

Messungen an benachbarten Tagen: Zur Jahresaggregation 2022
Tabelle aller Messwerte
UhrzeitTemperatur [°C]Luftdruck [mBar]SonneWind [km/h]RichtungRegen [l/m²]rF [%]CO2 [ppm]
00:01:48 10 1006 0 0 N 0 81.2 562
00:04:47 10 1005 0 0 N 0 81.4 560
00:07:45 10 1006 0 2 N 0 81.2 564
00:10:47 10 1006 0 0 N 0 80.8 571
00:13:48 10 1006 0 0 N 0 82.4 576
00:16:46 10 1005 0 0 N 0 82.9 565
00:19:48 10 1006 0 0 N 0 83.7 565
00:22:46 10 1005 0 0 N 0 83.7 562
00:25:46 10 1006 0 0 N 0 83.8 573
00:28:48 10 1006 0 0 N 0 84.1 570
00:31:48 10 1005 0 0 N 0 84.1 572
00:34:47 10 1006 0 0 N 0 83.9 565
00:37:48 10 1005 0 0 N 0 83.9 572
00:40:47 10 1005 0 0 N 0 83.5 574
00:43:46 10 1006 0 0 N 0 83.1 571
00:46:46 10 1005 0 0 N 0 83.6 575
00:49:48 10 1005 0 0 N 0 84.3 574
00:52:47 9 1005 0 0 N 0 84.7 586
00:55:48 9 1005 0 0 N 0 85.9 591
00:58:48 9 1005 0 0 N 0 87 592
01:01:48 9 1006 0 0 N 0 87.2 589
01:04:47 9 1006 0 0 N 0 87.3 587
01:07:47 9 1005 0 0 N 0 87 592
01:10:45 9 1006 0 0 N 0 86.6 590
01:13:47 9 1005 0 0 N 0 86.7 594
01:16:46 9 1005 0 0 N 0 87.5 598
01:19:48 9 1006 0 0 N 0 88.5 600
01:22:49 9 1005 0 1 N 0 89.5 607
01:25:46 9 1005 0 0 N 0 89.5 604
01:28:46 9 1005 0 0 N 0 89.3 616
01:31:46 9 1005 0 0 N 0 89.9 618
01:34:47 9 1005 0 0 N 0 89.8 612
01:37:46 9 1005 0 0 N 0 90.3 615
01:40:50 9 1004 0 0 NO 0 90.9 620
01:43:48 9 1005 0 0 N 0 90.8 622
01:46:46 9 1005 0 0 N 0 90.9 627
01:49:45 9 1005 0 0 N 0 90.9 618
01:52:46 9 1005 0 0 O 0 90.7 622
01:55:45 8 1005 0 0 N 0 90.3 623
01:58:46 8 1005 0 0 N 0 91 627
02:01:47 8 1005 0 0 N 0 91.5 630
02:04:46 8 1005 0 0 N 0 91.7 633
02:07:45 8 1005 0 0 N 0 91.9 635
02:10:47 8 1004 0 0 N 0 91.8 632
02:13:47 8 1005 0 0 N 0 91.9 630
02:16:47 8 1005 0 0 N 0 92.1 631
02:19:48 8 1006 0 0 N 0 92 641
02:22:47 8 1005 0 0 N 0 91.8 644
02:25:48 8 1005 0 0 N 0 92.3 644
02:28:49 8 1005 0 3 NO 0 92.7 649
02:31:49 8 1005 0 0 NO 0 93.4 651
02:34:47 8 1005 0 0 SO 0 93.1 656
02:37:45 8 1005 0 0 N 0 92.7 648
02:40:47 8 1005 0 0 N 0 92.6 656
02:43:48 8 1005 0 0 N 0 92.7 648
02:46:47 8 1005 0 0 N 0 92.7 644
02:49:47 8 1005 0 0 N 0 92.6 641
02:52:45 8 1005 0 0 N 0 92.6 638
02:55:50 8 1006 0 0 N 0 92.8 648
02:58:46 8 1005 0 0 N 0 93 649
03:01:45 8 1004 0 0 N 0 93 653
03:04:47 8 1005 0 0 N 0 92.9 650
03:07:46 8 1005 0 0 N 0 92.9 645
03:10:46 8 1005 0 0 N 0 93.3 649
03:13:48 8 1005 0 0 SO 0 93.5 651
03:16:46 8 1005 0 0 O 0 93.4 655
03:19:46 8 1005 0 0 O 0 93.3 650
03:34:55 8 1005 0 0 NO 0 94.4 642
03:37:46 8 1005 0 1 N 0 94.4 653
03:40:46 8 1005 0 1 NO 0 94.5 653
03:43:47 8 1005 0 0 NO 0 94.8 653
03:46:47 8 1004 0 0 NO 0 94.7 644
03:49:47 8 1004 0 0 NO 0 94.5 642
03:52:48 8 1004 0 0 NO 0 94.2 650
03:55:46 8 1004 0 0 NO 0 94.2 653
03:58:49 8 1004 0 0 NO 0 94.4 656
04:01:47 8 1004 0 0 NO 0 94.6 656
04:04:46 8 1005 0 0 NO 0 94.6 652
04:07:48 8 1004 0 0 NO 0 94.5 656
04:10:48 7 1005 0 0 NO 0 94.6 656
04:13:46 7 1004 0 0 NO 0 94.4 665
04:16:45 8 1005 0 0 N 0 94.9 657
04:19:46 8 1004 0 0 N 0 95.2 653
04:22:45 7 1004 4 0 N 0 95 653
04:25:45 7 1004 5 0 N 0 94.8 648
04:28:46 7 1005 8 0 N 0 94.8 650
04:31:47 7 1004 11 0 N 0 95.2 649
04:34:47 7 1004 15 0 N 0 95.7 659
04:37:47 8 1004 20 0 N 0 96 662
04:40:49 7 1005 26 0 N 0 95.8 665
04:43:45 7 1004 33 0 N 0 95.7 670
04:46:46 7 1004 41 0 N 0 95.7 674
04:49:46 7 1005 49 0 N 0 95.6 667
04:52:46 7 1004 58 0 N 0 96 669
04:55:46 7 1004 67 0 N 0 95.7 657
04:58:46 7 1004 76 0 N 0 95.4 659
05:01:47 7 1004 85 0 N 0 95.2 662
05:04:47 7 1004 93 0 N 0 95.2 665
05:07:46 7 1004 101 0 N 0 95.1 660
05:10:47 7 1004 108 0 N 0 95.3 659
05:13:50 7 1003 115 0 N 0 95.5 658
05:16:49 7 1004 121 0 N 0 95.9 658
05:19:48 7 1004 126 0 NO 0 96.2 662
05:22:48 8 1004 131 2 NO 0 96.6 662
05:25:49 8 1004 136 0 NO 0 96.6 658
05:28:49 8 1003 140 0 NO 0 96.5 659
05:31:49 8 1004 143 0 NO 0 96.1 652
05:34:48 8 1004 147 0 NO 0 95.8 655
05:37:49 7 1004 150 0 NO 0 95.6 651
05:40:46 7 1004 153 0 NO 0 95.6 656
05:43:48 8 1003 156 0 NO 0 95.7 659
05:46:48 8 1004 158 0 NO 0 95.8 653
05:49:49 8 1004 160 0 NO 0 95.8 653
05:52:47 8 1004 162 0 NO 0 95.8 652
05:55:47 8 1004 164 0 NO 0 95.8 656
05:58:49 8 1004 165 0 NO 0 96 656
06:01:50 8 1004 167 0 NO 0 96 655
06:04:49 8 1004 168 0 NO 0 96.1 656
06:07:47 8 1004 169 0 NO 0 96.2 654
06:10:49 8 1004 170 0 NO 0 95.8 659
06:13:49 8 1004 171 0 NO 0 95.6 659
06:16:49 9 1004 172 0 NO 0 95.6 663
06:19:50 9 1003 173 0 NO 0 95.6 661
06:22:48 9 1004 174 0 NO 0 95.5 662
06:25:47 9 1004 175 0 NO 0 95.4 662
06:28:50 9 1003 175 0 NO 0 95.2 665
06:31:47 9 1003 176 0 NO 0 94.8 664
06:34:48 10 1004 177 0 NO 0 94.3 668
06:37:48 10 1004 178 0 NO 0 94.2 670
06:40:49 10 1003 180 0 NO 0 94.2 668
06:43:50 10 1003 181 0 NO 0 93.6 662
06:46:49 10 1003 182 0 NO 0 93.5 662
06:49:48 10 1002 183 0 NO 0 93.5 661
06:52:47 10 1004 184 2 O 0 93.2 665
06:55:47 10 1003 185 4 O 0 93.1 661
06:58:50 11 1003 185 0 NO 0 91 662
07:01:47 11 1004 186 1 N 0 90.3 659
07:04:47 12 1004 186 0 O 0 89.2 644
07:07:49 12 1003 186 0 SO 0 87.8 638
07:10:49 12 1003 187 0 NO 0 87.3 609
07:13:50 12 1004 187 1 NO 0 87.2 597
07:16:48 12 1004 187 2 NO 0 87.2 594
07:19:50 13 1004 185 0 NO 0 86.4 594
07:22:46 13 1003 185 1 N 0 85.4 604
07:25:48 13 1004 185 2 N 0 84.6 618
07:28:50 14 1004 185 3 NO 0 83.9 629
07:31:48 15 1004 185 0 O 0 82.8 626
07:34:48 16 1004 184 3 N 0 78.5 615
07:37:31 13 1004 184 0 O 0 71.5 615
07:40:50 16 1004 184 1 SO 0 66.2 618
07:43:30 14 1004 184 4 N 0 59.2 615
07:46:48 16 1004 184 1 O 0 61.1 609
07:49:48 16 1003 184 4 N 0 60.7 598
07:52:57 17 1004 184 1 O 0 59.9 593
07:55:51 17 1003 184 5 NO 0 58.2 588
07:58:47 18 1004 184 5 NO 0 57.8 596
08:01:48 21 1003 185 3 N 0 55.9 620
08:04:47 21 1004 184 1 O 0 55.6 644
08:07:50 21 1004 185 3 NO 0 56.3 655
08:10:48 21 1004 184 2 NO 0 55.7 637
08:13:49 19 1003 185 2 O 0 56.5 638
08:16:49 17 1004 185 5 O 0 60.6 638
08:19:33 19 1004 185 6 NO 0 48.6 653
08:22:47 17 1003 185 3 O 0 65.2 644
08:25:47 17 1004 185 1 SO 0 66.6 647
08:28:48 17 1004 185 0 NO 0 66.4 653
08:31:47 17 1004 186 5 O 0 64.9 649
08:34:48 16 1004 185 7 NO 0 65.4 656
08:37:50 16 1004 186 6 NO 0 66 649
08:40:49 16 1004 185 4 SO 0 65.5 646
08:43:49 16 1004 186 7 N 0 66.9 641
08:46:49 17 1004 186 2 NO 0 67.3 650
08:49:50 17 1004 186 8 N 0 67.2 646
08:52:47 17 1004 186 3 O 0 66.9 652
08:55:49 17 1004 187 5 O 0 66.3 653
08:58:47 17 1004 187 4 N 0 65.7 649
09:01:48 17 1004 188 3 NW 0 65.6 644
09:04:47 17 1004 189 6 N 0 65 650
09:07:49 17 1004 190 3 N 0 64.7 656
09:10:49 17 1003 191 4 NO 0 65 656
09:13:48 17 1004 191 4 N 0 65.4 659
09:16:46 18 1004 192 0 S 0 64.6 661
09:19:50 18 1004 193 2 NO 0 64.3 659
09:22:46 18 1004 194 0 N 0 63 656
09:25:48 18 1004 195 4 NO 0 62.6 652
09:28:48 18 1004 195 6 N 0 62 656
09:31:49 18 1004 195 5 NW 0 62 652
09:34:49 18 1003 195 9 NW 0 60.5 652
09:37:47 18 1004 195 4 S 0 60 645
09:40:48 18 1004 136 3 S 0 59.8 649
09:43:48 18 1004 135 3 O 0 58.7 533
09:46:46 18 1003 114 5 N 0 58.7 481
09:49:47 19 1003 114 4 NO 0 58.2 404
09:52:50 19 1003 114 2 NO 0 58.8 403
09:55:49 19 1004 114 6 S 0 58.9 396
09:58:47 19 1004 114 2 N 0 56.4 406
10:01:48 19 1004 115 2 SO 0 56 406
10:04:51 19 1003 115 6 SW 0 56.6 405
10:07:45 20 1004 115 6 O 0 57.4 404
10:10:48 20 1003 115 4 NO 0 57.2 407
10:13:48 20 1003 116 7 N 0 54 407
10:16:48 20 1004 116 4 NW 0 52.8 407
10:19:49 20 1003 116 4 NW 0 52.7 407
10:22:46 20 1003 116 2 N 0 51.7 404
10:25:47 20 1004 117 0 S 0 51.6 407
10:28:48 20 1003 117 2 S 0 51.8 407
10:31:47 20 1004 117 2 S 0 52.6 404
10:34:47 20 1003 118 5 SO 0 52.7 404
10:37:46 21 1003 118 1 O 0 51.8 404
10:40:47 21 1004 118 1 SO 0 50.3 407
10:43:49 21 1003 118 6 NW 0 49.7 404
10:46:49 21 1003 119 6 SO 0 49.7 407
10:49:48 21 1003 119 14 SO 0 49.8 407
10:52:48 21 1003 119 3 S 0 49.9 407
10:55:50 21 1004 119 4 N 0 49.2 406
10:58:48 21 1003 120 1 NO 0 49.7 407
11:01:48 21 1004 121 3 SW 0 50.3 404
11:04:47 21 1003 121 3 NO 0 49.7 409
11:07:48 21 1003 121 2 NO 0 49.7 419
11:10:48 21 1002 122 4 S 0 48.1 419
11:13:47 21 1003 122 8 O 0 48.1 416
11:16:46 22 1003 122 2 N 0 49.3 416
11:19:47 22 1003 123 2 W 0 47.6 407
11:22:48 22 1003 123 6 NO 0 46.9 403
11:25:48 22 1003 124 4 N 0 45.2 406
11:28:49 22 1003 124 4 NO 0 46.1 409
11:31:46 22 1003 124 1 N 0 45.4 421
11:34:47 22 1003 124 4 SO 0 45.4 439
11:37:48 22 1003 200 3 SO 0 45.9 439
11:40:50 22 1003 201 4 SO 0 47.4 419
11:43:49 23 1003 201 6 SW 0 47.2 407
11:46:47 23 1003 201 1 W 0 45.7 406
11:49:46 23 1003 202 1 N 0 43.9 410
11:52:49 23 1003 202 4 O 0 43 421
11:55:50 23 1003 202 2 NW 0 42 433
11:58:45 23 1003 203 7 N 0 41.4 451
12:01:47 24 1003 203 0 SO 0 41.5 468
12:04:49 25 1003 204 8 S 0 42.8 486
12:07:48 26 1003 204 9 S 0 41.5 512
12:10:48 26 1003 204 5 SW 0 37.6 530
12:13:49 26 1003 204 2 N 0 37.1 541
12:16:48 25 1003 204 2 NO 0 36.5 556
12:19:47 25 1003 205 4 N 0 34.9 563
12:22:50 25 1003 205 5 NW 0 37.4 565
12:25:49 25 1003 205 2 W 0 37.7 568
12:28:46 25 1003 206 2 W 0 37.1 576
12:31:48 25 1002 206 1 O 0 37.1 586
12:34:48 25 1003 207 0 O 0 37.6 583
12:37:50 26 1003 207 1 SO 0 37.8 594
12:40:48 26 1003 207 6 NO 0 36.7 602
12:43:49 26 1003 208 5 NO 0 36.1 620
12:46:48 26 1002 208 4 N 0 35.9 632
12:49:47 26 1003 209 4 0 34.9 646
12:52:52 26 1002 209 4 NO 0 37.6 659
12:55:49 27 1002 210 1 NO 0 37.6 671
12:58:47 28 1002 211 2 S 0 35.6 680
13:01:51 28 1003 211 10 S 0 34.4 695
13:04:50 28 1002 212 6 NO 0 31.1 700
13:07:49 27 1002 212 4 NW 0 32 706
13:10:48 27 1002 213 3 SO 0 33.3 706
13:13:47 29 1003 213 4 O 0 34.4 718
13:16:49 29 1002 213 3 S 0 32.3 732
13:19:49 30 1003 214 2 S 0 31.9 734
13:22:49 31 1002 214 3 S 0 30 748
13:25:48 30 1002 215 4 S 0 30 759
13:28:49 30 1002 215 2 S 0 31.8 770
13:31:48 29 1003 216 4 NO 0 31 769
13:34:50 29 1003 216 7 NO 0 31.6 762
13:37:48 30 1002 216 7 S 0 32.4 743
13:40:49 30 1002 216 4 O 0 33 735
13:43:47 30 1002 219 5 S 0 32.3 732
13:46:47 31 1002 220 7 S 0 30.2 732
13:49:49 31 1002 222 1 NW 0 27.2 729
13:52:49 30 1002 224 7 NW 0 27 731
13:55:48 30 1002 225 7 SO 0 30.7 740
13:58:47 30 1002 226 1 O 0 31.2 741
14:01:52 31 1002 227 2 W 0 30.2 746
14:04:49 31 1002 228 5 NW 0 29.7 752
14:07:50 30 1002 229 2 SW 0 28.8 744
14:10:49 29 1002 230 3 NO 0 29.9 729
14:13:52 28 1002 232 4 NO 0 29.2 738
14:16:47 28 1002 237 8 0 29.7 744
14:19:48 28 1002 238 5 N 0 31.2 758
14:22:48 28 1002 238 6 N 0 32.5 758
14:25:51 28 1002 239 5 NW 0 32 779
14:28:47 29 1002 240 0 N 0 32.2 788
14:31:50 29 1002 239 3 SW 0 31.7 800
14:34:50 30 1002 240 6 S 0 30.7 816
14:37:48 30 1002 241 4 S 0 29.3 826
14:40:51 29 1002 241 4 SO 0 28.2 818
14:43:49 29 1002 241 2 NO 0 28.8 797
14:46:47 27 1002 241 10 N 0 31.7 784
14:49:50 27 1002 242 2 NW 0 32.6 794
14:52:47 28 1002 243 1 O 0 33 808
14:55:50 29 1002 243 10 S 0 32.3 805
14:58:47 30 1002 243 2 SW 0 31.4 776
15:01:46 31 1002 243 2 S 0 30.5 737
15:04:50 32 1002 244 5 S 0 27.2 720
15:07:48 32 1002 244 12 S 0 26.4 731
15:10:50 32 1002 244 2 NO 0 25 735
15:13:48 32 1002 244 4 SO 0 26 729
15:16:46 32 1002 244 1 W 0 27.2 731
15:19:48 30 1002 245 5 NW 0 25.7 730
15:22:48 29 1002 245 3 SO 0 27.8 743
15:25:50 30 1002 245 5 SO 0 28.5 732
15:28:48 30 1002 245 2 S 0 28.9 734
15:31:49 31 1002 245 1 SW 0 27.2 726
15:34:49 31 1002 245 4 SW 0 26 724
15:37:47 32 1002 245 0 S 0 25.3 723
15:40:47 32 1002 246 2 S 0 25.6 732
15:43:48 31 1002 246 1 S 0 26.7 733
15:46:50 31 1002 246 5 N 0 25.5 731
15:49:48 30 1002 246 1 NO 0 25.4 725
15:52:48 30 1002 246 6 N 0 27.4 721
15:55:47 30 1002 246 2 S 0 27 717
15:58:47 30 1002 246 2 NW 0 28.5 714
16:01:48 31 1002 246 3 W 0 25.4 705
16:04:50 32 1002 246 5 SW 0 23.9 700
16:07:48 31 1002 246 1 S 0 23.4 706
16:10:47 32 1002 246 4 S 0 24.5 710
16:13:47 32 1002 246 7 O 0 25.2 713
16:16:49 31 1002 246 0 S 0 24.1 706
16:19:51 31 1002 247 5 NW 0 24 705
16:22:49 30 1002 247 4 O 0 24.8 697
16:25:50 30 1002 247 0 NW 0 25.8 689
16:28:50 30 1002 247 5 NW 0 26.7 685
16:31:49 31 1001 247 2 NW 0 27.2 685
16:34:47 31 1002 247 4 S 0 27.1 680
16:37:50 31 1002 246 0 SO 0 26 674
16:40:48 31 1002 247 3 N 0 24.3 664
16:43:48 32 1002 247 2 S 0 25.5 659
16:46:48 32 1002 246 0 NW 0 25.8 661
16:49:49 32 1002 246 3 S 0 23.8 658
16:52:50 32 1002 246 3 SO 0 23.7 664
16:55:48 32 1002 247 3 S 0 23.8 664
16:58:47 33 1002 247 3 S 0 23 670
17:01:47 33 1002 247 5 S 0 23.1 673
17:04:48 33 1002 246 6 SO 0 24 754
17:07:48 33 1002 247 2 O 0 23.4 764
17:10:47 33 1002 247 2 W 0 23 773
17:13:47 33 1002 247 3 S 0 23.1 775
17:16:49 33 1002 247 3 S 0 22.2 782
17:19:47 33 1001 247 6 S 0 21.6 785
17:22:47 33 1002 246 1 W 0 22.4 787
17:25:48 33 1002 246 4 SO 0 23 787
17:28:49 33 1002 246 0 SO 0 23.3 804
17:31:49 34 1002 246 3 S 0 23.7 805
17:34:49 34 1002 245 1 SW 0 23.5 805
17:37:47 34 1002 246 1 W 0 22.7 804
17:40:47 33 1002 245 2 W 0 23.2 806
17:43:48 33 1002 244 3 S 0 24.1 814
17:46:49 32 1002 244 3 O 0 24.4 820
17:49:49 32 1001 245 2 SW 0 24.3 822
17:52:48 32 1002 246 0 S 0 24.8 826
17:55:48 33 1001 247 1 SW 0 24.8 829
17:58:48 33 1001 246 4 SW 0 23.5 840
18:01:49 33 1002 246 4 NW 0 24.2 840
18:04:48 33 1001 246 0 W 0 24.6 838
18:07:49 33 1002 246 1 SW 0 24 837
18:10:49 33 1002 246 3 SW 0 23.7 840
18:13:50 33 1002 247 0 SW 0 23.9 833
18:16:49 33 1001 246 0 SW 0 23.4 828
18:19:48 33 1001 247 0 S 0 22.3 817
18:22:49 33 1002 246 0 SW 0 22 816
18:25:48 33 1001 246 3 SW 0 21.9 807
18:28:51 33 1001 242 1 SO 0 20.4 814
18:31:47 32 1001 243 1 NW 0 21.3 821
18:34:46 31 1002 246 3 W 0 23.4 823
18:37:53 31 1002 239 0 SO 0 23.8 826
18:40:50 31 1001 243 2 SO 0 23.9 832
18:43:49 32 1002 247 0 SO 0 24.4 834
18:46:48 33 1001 247 1 W 0 23.8 838
18:49:49 33 1001 247 0 S 0 22.5 840
18:52:50 31 1002 246 3 SO 0 22.7 847
18:55:49 30 1001 227 1 S 0 24.8 844
18:58:51 29 1001 231 0 NO 0 25.1 846
19:01:49 28 1001 213 3 SW 0 26.8 861
19:04:49 27 1001 215 1 SO 0 28 860
19:07:51 27 1001 210 0 SO 0 30.2 864
19:10:49 26 1001 207 0 NO 0 30.9 852
19:13:48 26 1001 207 0 O 0 32.3 846
19:16:49 25 1000 209 1 SW 0 32.9 841
19:19:49 25 1001 206 0 SW 0 33 840
19:22:50 25 1001 208 1 NW 0 34.9 852
19:25:46 25 1001 229 7 N 0 35.1 842
19:28:48 25 1001 210 0 O 0 35.5 847
19:31:49 24 1001 202 0 O 0 36.1 832
19:34:48 24 1001 202 0 O 0 36.4 834
19:37:47 24 1001 206 0 S 0 36.4 832
19:40:49 24 1001 202 0 SO 0 37 832
19:43:49 24 1001 200 0 O 0 38 828
19:46:45 24 1001 199 1 N 0 38.6 828
19:49:50 23 1001 198 0 NW 0 38.9 829
19:52:49 23 1001 198 1 NO 0 39.2 822
19:55:49 23 1001 197 3 NW 0 39.7 819
19:58:51 23 1002 196 1 NO 0 37.9 818
20:01:50 23 1002 169 0 O 0 37.3 832
20:04:49 23 1000 172 1 NW 0 37.6 843
20:07:49 23 1001 193 0 NW 0 37.8 850
20:10:50 23 1001 191 0 N 0 38.3 817
20:13:48 23 1002 189 0 O 0 38.6 753
20:16:51 23 1001 186 1 SO 0 39.2 735
20:19:50 23 1001 184 0 O 0 39.5 724
20:22:49 23 1001 180 0 O 0 39.8 727
20:25:48 23 1001 177 0 NO 0 40.3 735
20:28:49 23 1001 176 0 NO 0 40.5 749
20:31:48 22 1002 177 1 NO 0 40.8 765
20:34:48 22 1001 175 0 NO 0 41.6 770
20:37:49 22 1001 171 0 O 0 41.6 774
20:40:48 22 1002 168 1 O 0 42.1 782
20:43:47 22 1001 165 0 O 0 42.3 782
20:46:47 22 1001 162 0 O 0 42.3 785
20:49:48 22 1001 160 0 O 0 42.6 793
20:52:52 22 1001 157 1 W 0 43.4 805
20:55:49 21 1001 155 0 W 0 43.5 805
20:58:50 21 1001 153 1 NW 0 43.8 809
21:01:50 21 1001 152 0 W 0 44.7 803
21:04:48 21 1001 150 0 O 0 44.8 808
21:07:47 21 1000 144 0 O 0 44.5 815
21:10:48 21 1001 137 5 N 0 45.3 823
21:13:50 21 1001 130 1 NW 0 45.4 821
21:16:49 21 1000 123 0 SO 0 44.8 821
21:19:48 21 1001 116 0 SO 0 44.9 830
21:22:48 20 1000 110 0 SO 0 45.6 847
21:25:49 20 1001 103 0 NO 0 45.6 867
21:28:47 20 1000 96 4 SO 0 45.7 878
21:31:48 20 1001 87 0 N 0 46.4 867
21:34:49 20 1002 78 2 SO 0 47.3 869
21:37:48 19 1000 69 0 W 0 48.7 864
21:40:47 19 1001 61 0 NO 0 48.9 878
21:43:48 19 1001 54 2 N 0 49.3 886
21:46:47 19 1001 46 0 NO 0 50.2 881
21:49:50 18 1001 39 0 NO 0 51.1 872
21:52:49 18 1002 33 0 SO 0 51.4 875
21:55:47 18 1001 27 0 SO 0 51.6 882
21:58:50 18 1001 22 0 NO 0 52.4 890
22:01:49 18 1002 17 0 SO 0 53.1 877
22:04:49 17 1001 13 0 NW 0 53.8 878
22:07:48 17 1001 11 0 NW 0 54.5 869
22:10:47 17 1001 8 0 NW 0 55.4 873
22:13:50 17 1001 6 0 NW 0 55.3 875
22:16:48 17 1001 5 0 NW 0 55.5 879
22:19:47 17 1001 4 1 N 0 57.1 878
22:22:48 17 1002 4 0 NW 0 58.4 885
22:25:52 17 1002 3 0 NW 0 58 893
22:28:47 16 1001 3 0 S 0 58.1 893
22:31:48 16 1001 3 1 NW 0 58.7 895
22:34:46 16 1002 0 0 N 0 59.3 893
22:37:46 16 1002 0 0 N 0 58.4 896
22:40:48 16 1001 0 0 SW 0 58.7 900
22:43:47 16 1001 0 0 NW 0 59.5 898
22:46:50 16 1001 0 0 NW 0 59.8 899
22:49:51 16 1001 0 0 SO 0 60.4 908
22:52:49 16 1001 0 0 SO 0 61 916
22:55:49 16 1001 0 0 NO 0 61.8 922
22:58:47 16 1001 0 0 NO 0 62 917
23:01:50 16 1001 0 0 NO 0 61.8 925
23:04:47 16 1002 0 0 O 0 61.8 921
23:07:50 16 1001 0 0 O 0 61.8 925
23:10:46 16 1002 0 0 N 0 61.8 920
23:13:50 16 1001 0 2 NW 0 62 934
23:16:51 16 1002 0 2 NO 0 62.2 936
23:19:45 16 1002 0 2 0 63 930
23:22:48 17 1002 0 5 NW 0 61.6 949
23:25:46 17 1002 0 8 N 0 61.2 956
23:28:47 17 1002 0 5 N 0 61.2 965
23:31:50 17 1002 0 2 NO 0 59.9 957
23:34:46 17 1001 0 0 N 0 59.8 956
23:37:49 17 1002 0 5 N 0 60.2 978
23:40:47 17 1002 0 1 NO 0 60.3 992
23:43:48 17 1002 0 0 NW 0 60 1004
23:46:47 17 1002 0 4 SW 0 60 1004
23:49:47 17 1001 0 4 N 0 60.4 1010
23:52:47 17 1001 0 1 NO 0 60.6 999
23:55:46 17 1002 0 0 N 0 61 994
23:58:49 17 1001 0 2 NW 0 61 977

Letzte Änderung : 22-Jul-2022
Copyright Jens Köhler, Wolfsburg, Obere Dorfstraße 10d